Location: Newark
(45.9456°N, 15.4064°E)
Time: 22:08:37
(UTC+00:00)

Vanguard 3 - Pass Details

Date: 01 February 2020
Orbit: 508 x 3263 km, 33.3° (Epoch: 19 February)

Event Time Altitude Azimuth Distance (km) Brightness Sun altitude
Rises 20:28:56 0° 278° (W) 7,234 12.7 -45.6°
Reaches altitude 10° 20:35:05 10° 269° (W) 6,120 12.0 -46.5°
Maximum altitude 20:48:51 27° 222° (SW) 4,229 10.7 -48.6°
Enters shadow 20:51:10 26° 209° (SSW) 4,124 10.5 -48.9°
Drops below altitude 10° 20:59:21 10° 171° (S) 4,570 - -50.1°
Sets 21:03:08 0° 159° (SSE) 5,167 - -50.7°
